NOZ666 ENAT-ENKR

Flight info

Callsign NOZ666
Flight time N/A
Altitude 19000
Route PEMEP DCT VADLA
Aircraft B738/M-SDE2E3FGHIRWXY/LB1

Departure

Time 2026-05-04 19:46
Airport Alta Airport (ENAT)

Arrival

Time N/A
Airport Kirkenes Airport, Høybuktmoen (ENKR)
Time Latitude Longitude Altitude Speed Heading
2026-05-04 19:32 69.97879 23.34538 35 ft 0 kts 210°
2026-05-04 19:33 69.97878 23.34537 34 ft 0 kts 210°
2026-05-04 19:40 69.97881 23.34543 34 ft 3 kts 210°
2026-05-04 19:40 69.97904 23.34582 33 ft 4 kts 210°
2026-05-04 19:40 69.97927 23.34623 34 ft 4 kts 210°
2026-05-04 19:41 69.97936 23.34639 33 ft 0 kts 210°
2026-05-04 19:42 69.97936 23.34621 31 ft 3 kts 270°
2026-05-04 19:42 69.97967 23.34495 34 ft 10 kts 310°
2026-05-04 19:42 69.98014 23.34344 34 ft 10 kts 317°
2026-05-04 19:42 69.98063 23.34205 34 ft 10 kts 317°
2026-05-04 19:43 69.98114 23.34077 34 ft 9 kts 319°
2026-05-04 19:43 69.98140 23.34012 34 ft 0 kts 318°
2026-05-04 19:43 69.98152 23.33979 34 ft 6 kts 318°
2026-05-04 19:44 69.98190 23.33891 33 ft 7 kts 328°
2026-05-04 19:44 69.98237 23.33882 34 ft 7 kts 25°
2026-05-04 19:44 69.98258 23.33997 35 ft 7 kts 92°
2026-05-04 19:44 69.98250 23.34061 35 ft 0 kts 116°
2026-05-04 19:46 69.98166 23.34465 35 ft 59 kts 121°
2026-05-04 19:46 69.97821 23.36111 31 ft 128 kts 122°
2026-05-04 19:46 69.97270 23.38733 202 ft 165 kts 118°
2026-05-04 19:46 69.96698 23.41429 1093 ft 154 kts 112°
2026-05-04 19:47 69.96532 23.44633 1595 ft 175 kts 81°
2026-05-04 19:47 69.97065 23.48015 2088 ft 192 kts 44°
2026-05-04 19:47 69.98203 23.50110 3034 ft 195 kts 31°
2026-05-04 19:47 69.99269 23.52554 3797 ft 197 kts 54°
2026-05-04 19:48 69.99760 23.56201 4460 ft 195 kts 88°